EDW371 LCLK-LSZH

Flight info

Callsign EDW371
Flight time N/A
Altitude 36000
Route PHA DCT GENOS DCT PEDER DCT EVENO UM601 RDS UL609 MES UG18 FSK UL608 DISOR DCT LONTA UL608 DOLEV DCT PODOB DCT KUSIB DCT GORPA DCT ERKIR/N0442F300 L608 KPT L856 NEGRA
Aircraft A320/M-SDE3FGHIRWY/LB1

Departure

Time N/A
Airport Larnaca International Airport (LCLK)

Arrival

Time 2026-05-03 21:31
Airport Zürich Airport (LSZH)
Time Latitude Longitude Altitude Speed Heading
2026-05-03 20:15 43.74244 18.81018 36156 ft 433 kts 314°
2026-05-03 20:15 43.78180 18.74714 36164 ft 433 kts 314°
2026-05-03 20:16 43.82119 18.68406 36169 ft 433 kts 314°
2026-05-03 20:16 43.86051 18.62091 36158 ft 433 kts 314°
2026-05-03 20:17 43.89979 18.55754 36168 ft 433 kts 314°
2026-05-03 20:17 43.93909 18.49406 36175 ft 433 kts 314°
2026-05-03 20:18 43.97844 18.43061 36175 ft 433 kts 314°
2026-05-03 20:18 44.01769 18.36706 36170 ft 433 kts 314°
2026-05-03 20:19 44.05680 18.30342 36167 ft 433 kts 314°
2026-05-03 20:19 44.09593 18.23970 36159 ft 433 kts 314°
2026-05-03 20:20 44.13485 18.17642 36152 ft 433 kts 314°
2026-05-03 20:20 44.17390 18.11255 36112 ft 433 kts 314°
2026-05-03 20:21 44.21305 18.04843 36128 ft 433 kts 314°
2026-05-03 20:21 44.25205 17.98449 36135 ft 433 kts 314°
2026-05-03 20:22 44.29097 17.92038 36136 ft 433 kts 314°
2026-05-03 20:22 44.32987 17.85618 36140 ft 433 kts 314°
2026-05-03 20:23 44.36872 17.79191 36124 ft 432 kts 314°
2026-05-03 20:23 44.40755 17.72762 36136 ft 433 kts 314°
2026-05-03 20:24 44.44605 17.66360 36141 ft 433 kts 314°
2026-05-03 20:24 44.48483 17.59907 36142 ft 433 kts 314°
2026-05-03 20:25 44.52359 17.53452 36123 ft 433 kts 314°
2026-05-03 20:25 44.56228 17.46988 36134 ft 432 kts 314°
2026-05-03 20:26 44.60089 17.40510 36137 ft 432 kts 313°
2026-05-03 20:26 44.63938 17.34037 36141 ft 432 kts 313°
2026-05-03 20:27 44.67789 17.27549 36137 ft 432 kts 313°
2026-05-03 20:27 44.71641 17.21060 36109 ft 432 kts 313°
2026-05-03 20:28 44.75489 17.14553 36115 ft 433 kts 313°
2026-05-03 20:28 44.79330 17.08032 36120 ft 433 kts 313°
2026-05-03 20:29 44.83173 17.01500 36123 ft 433 kts 313°
2026-05-03 20:29 44.87017 16.94963 36107 ft 433 kts 312°
2026-05-03 20:30 44.90836 16.88440 36116 ft 434 kts 312°
2026-05-03 20:30 44.94677 16.81862 36116 ft 434 kts 312°
2026-05-03 20:31 44.98516 16.75271 36126 ft 435 kts 312°
2026-05-03 20:31 45.02360 16.68670 36118 ft 435 kts 312°
2026-05-03 20:32 45.06206 16.62053 36101 ft 436 kts 311°
2026-05-03 20:32 45.10053 16.55426 36107 ft 436 kts 311°
2026-05-03 20:33 45.13899 16.48766 36096 ft 436 kts 311°
2026-05-03 20:33 45.17723 16.42094 36110 ft 436 kts 311°
2026-05-03 20:34 45.21538 16.35376 36085 ft 437 kts 310°
2026-05-03 20:34 45.25344 16.28642 36092 ft 438 kts 310°
2026-05-03 20:35 45.29159 16.21899 36096 ft 438 kts 310°
2026-05-03 20:35 45.32949 16.15188 36100 ft 438 kts 310°
2026-05-03 20:36 45.36765 16.08415 36104 ft 439 kts 310°
2026-05-03 20:36 45.40572 16.01637 36104 ft 439 kts 310°
2026-05-03 20:37 45.44374 15.94842 36110 ft 439 kts 310°
2026-05-03 20:37 45.48179 15.88035 36112 ft 439 kts 309°
2026-05-03 20:38 45.51976 15.81215 36117 ft 439 kts 309°
2026-05-03 20:38 45.55767 15.74383 36104 ft 439 kts 309°
2026-05-03 20:39 45.58926 15.68702 36110 ft 439 kts 309°
2026-05-03 20:39 45.62714 15.61879 36112 ft 438 kts 309°
2026-05-03 20:40 45.67108 15.53927 36114 ft 439 kts 309°
2026-05-03 20:40 45.70278 15.48176 36116 ft 439 kts 309°
2026-05-03 20:41 45.74046 15.41302 36126 ft 439 kts 309°
2026-05-03 20:41 45.77786 15.34462 36124 ft 439 kts 309°
2026-05-03 20:42 45.81592 15.27627 36123 ft 438 kts 310°
2026-05-03 20:42 45.85415 15.20820 36120 ft 438 kts 309°
2026-05-03 20:43 45.89223 15.13992 36111 ft 438 kts 309°
2026-05-03 20:43 45.93016 15.07159 36112 ft 438 kts 309°
2026-05-03 20:44 45.96812 15.00304 36116 ft 438 kts 309°
2026-05-03 20:44 46.00602 14.93435 36120 ft 438 kts 309°
2026-05-03 20:45 46.04397 14.86555 36123 ft 438 kts 309°
2026-05-03 20:45 46.08186 14.79666 36112 ft 439 kts 308°
2026-05-03 20:46 46.11791 14.72712 36112 ft 428 kts 305°
2026-05-03 20:46 46.15111 14.65664 36112 ft 423 kts 304°
2026-05-03 20:47 46.18386 14.58620 36110 ft 422 kts 304°
2026-05-03 20:47 46.21694 14.51632 36112 ft 422 kts 305°
2026-05-03 20:48 46.25029 14.44650 36107 ft 422 kts 304°
2026-05-03 20:48 46.28363 14.37654 36109 ft 422 kts 304°
2026-05-03 20:49 46.31688 14.30650 36102 ft 423 kts 304°
2026-05-03 20:49 46.35010 14.23622 36098 ft 423 kts 304°
2026-05-03 20:50 46.38322 14.16583 36095 ft 423 kts 304°
2026-05-03 20:50 46.41611 14.09576 36086 ft 423 kts 304°
2026-05-03 20:51 46.44923 14.02527 36089 ft 423 kts 304°
2026-05-03 20:51 46.48227 13.95454 36090 ft 423 kts 303°
2026-05-03 20:52 46.51527 13.88375 36091 ft 423 kts 303°
2026-05-03 20:52 46.54825 13.81285 36091 ft 423 kts 303°
2026-05-03 20:53 46.58119 13.74199 36087 ft 423 kts 303°
2026-05-03 20:53 46.61410 13.67093 36087 ft 424 kts 303°
2026-05-03 20:54 46.64696 13.59974 36091 ft 424 kts 303°
2026-05-03 20:54 46.69598 13.49308 36093 ft 424 kts 303°
2026-05-03 20:55 46.72882 13.42154 36101 ft 424 kts 303°
2026-05-03 20:55 46.76160 13.35001 36103 ft 424 kts 303°
2026-05-03 20:56 46.79431 13.27846 36096 ft 424 kts 303°
2026-05-03 20:56 46.82694 13.20666 36102 ft 424 kts 303°
2026-05-03 20:57 46.85960 13.13482 36092 ft 425 kts 302°
2026-05-03 20:57 46.89200 13.06325 36081 ft 425 kts 302°
2026-05-03 20:58 46.92460 12.99109 36072 ft 425 kts 302°
2026-05-03 20:58 46.95716 12.91882 36072 ft 425 kts 302°
2026-05-03 20:59 46.98968 12.84642 36062 ft 425 kts 302°
2026-05-03 20:59 47.02225 12.77383 36050 ft 426 kts 302°
2026-05-03 21:00 47.04926 12.71345 36044 ft 426 kts 302°
2026-05-03 21:00 47.08722 12.62831 36048 ft 427 kts 302°
2026-05-03 21:01 47.11972 12.55538 36038 ft 427 kts 302°
2026-05-03 21:01 47.15216 12.48227 36034 ft 427 kts 301°
2026-05-03 21:02 47.18456 12.40885 36032 ft 428 kts 301°
2026-05-03 21:02 47.21698 12.33535 36027 ft 429 kts 301°
2026-05-03 21:03 47.24912 12.26146 36017 ft 428 kts 296°
2026-05-03 21:03 47.25981 12.22145 36024 ft 425 kts 285°
2026-05-03 21:03 47.26786 12.17954 36018 ft 426 kts 284°
2026-05-03 21:04 47.28361 12.09550 36016 ft 426 kts 284°
2026-05-03 21:04 47.29927 12.01126 36019 ft 426 kts 284°
2026-05-03 21:05 47.31492 11.92699 36011 ft 426 kts 284°
2026-05-03 21:05 47.33055 11.84266 36009 ft 426 kts 284°
2026-05-03 21:06 47.34662 11.75850 36016 ft 426 kts 285°
2026-05-03 21:06 47.36300 11.67440 36027 ft 426 kts 284°
2026-05-03 21:07 47.37923 11.59031 36025 ft 426 kts 284°
2026-05-03 21:07 47.39530 11.50609 35925 ft 427 kts 284°
2026-05-03 21:08 47.40333 11.46378 35666 ft 427 kts 284°
2026-05-03 21:08 47.41134 11.42154 35414 ft 428 kts 284°
2026-05-03 21:08 47.41933 11.37922 35171 ft 429 kts 284°
2026-05-03 21:08 47.42732 11.33680 34917 ft 429 kts 284°
2026-05-03 21:09 47.43532 11.29429 34673 ft 430 kts 284°
2026-05-03 21:09 47.44327 11.25215 34437 ft 432 kts 283°
2026-05-03 21:09 47.45135 11.20929 34201 ft 433 kts 283°
2026-05-03 21:09 47.45939 11.16641 33953 ft 434 kts 283°
2026-05-03 21:10 47.46744 11.12338 33673 ft 435 kts 283°
2026-05-03 21:10 47.47547 11.08028 33400 ft 435 kts 283°
2026-05-03 21:10 47.48353 11.03705 33174 ft 436 kts 283°
2026-05-03 21:10 47.49156 10.99381 32906 ft 436 kts 283°
2026-05-03 21:11 47.49957 10.95048 32638 ft 437 kts 283°
2026-05-03 21:11 47.50757 10.90710 32373 ft 437 kts 283°
2026-05-03 21:11 47.51557 10.86383 31948 ft 435 kts 283°
2026-05-03 21:11 47.52350 10.82082 31479 ft 432 kts 283°
2026-05-03 21:12 47.53131 10.77805 31033 ft 428 kts 282°
2026-05-03 21:12 47.53903 10.73573 30586 ft 424 kts 282°
2026-05-03 21:12 47.54667 10.69379 30144 ft 421 kts 282°
2026-05-03 21:12 47.55426 10.65210 29641 ft 418 kts 282°
2026-05-03 21:13 47.56177 10.61070 29133 ft 415 kts 282°
2026-05-03 21:13 47.56923 10.56961 28636 ft 412 kts 282°
2026-05-03 21:13 47.57663 10.52877 28148 ft 409 kts 283°
2026-05-03 21:13 47.58396 10.48826 27691 ft 406 kts 282°
2026-05-03 21:14 47.59122 10.44799 27224 ft 403 kts 282°
2026-05-03 21:14 47.59840 10.40793 26761 ft 401 kts 282°
2026-05-03 21:14 47.60551 10.36819 26313 ft 398 kts 282°
2026-05-03 21:14 47.61247 10.32923 25865 ft 395 kts 282°
2026-05-03 21:15 47.61946 10.28995 25429 ft 393 kts 282°
2026-05-03 21:15 47.62641 10.25084 24987 ft 391 kts 282°
2026-05-03 21:15 47.63333 10.21196 24567 ft 388 kts 283°
2026-05-03 21:15 47.64019 10.17334 24150 ft 386 kts 283°
2026-05-03 21:16 47.64699 10.13490 23715 ft 384 kts 283°
2026-05-03 21:16 47.65372 10.09673 23183 ft 382 kts 282°
2026-05-03 21:16 47.66041 10.05876 22644 ft 379 kts 282°
2026-05-03 21:16 47.66704 10.02100 22114 ft 377 kts 282°
2026-05-03 21:17 47.67363 9.98348 21602 ft 375 kts 282°
2026-05-03 21:17 47.67796 9.95880 21254 ft 373 kts 282°
2026-05-03 21:17 47.68671 9.90913 20577 ft 370 kts 283°
2026-05-03 21:17 47.69325 9.87237 20079 ft 367 kts 283°
2026-05-03 21:18 47.69977 9.83588 19595 ft 365 kts 283°
2026-05-03 21:18 47.70626 9.79957 19117 ft 363 kts 283°
2026-05-03 21:18 47.71268 9.76342 18643 ft 361 kts 283°
2026-05-03 21:18 47.71902 9.72754 18154 ft 359 kts 283°
2026-05-03 21:19 47.72527 9.69175 17632 ft 356 kts 281°
2026-05-03 21:19 47.72855 9.65551 17106 ft 352 kts 270°
2026-05-03 21:19 47.72785 9.61932 16582 ft 349 kts 266°
2026-05-03 21:19 47.72677 9.58342 16088 ft 348 kts 266°
2026-05-03 21:20 47.72572 9.54765 15581 ft 346 kts 266°
2026-05-03 21:20 47.72470 9.51197 15086 ft 344 kts 266°
2026-05-03 21:20 47.72367 9.47699 14608 ft 342 kts 265°
2026-05-03 21:20 47.71979 9.44229 14132 ft 339 kts 253°
2026-05-03 21:21 47.71088 9.41009 13636 ft 337 kts 240°
2026-05-03 21:21 47.69755 9.38172 13107 ft 334 kts 230°
2026-05-03 21:21 47.68288 9.35512 12598 ft 332 kts 230°
2026-05-03 21:21 47.66833 9.32869 12090 ft 329 kts 230°
2026-05-03 21:22 47.65389 9.30242 11582 ft 327 kts 230°
2026-05-03 21:22 47.63958 9.27643 11088 ft 324 kts 229°
2026-05-03 21:22 47.62541 9.25072 10615 ft 321 kts 229°
2026-05-03 21:22 47.61130 9.22522 10132 ft 318 kts 230°
2026-05-03 21:23 47.59877 9.19847 9616 ft 316 kts 240°
2026-05-03 21:23 47.59058 9.16877 9099 ft 316 kts 252°
2026-05-03 21:23 47.58626 9.13695 8588 ft 314 kts 258°
2026-05-03 21:23 47.58243 9.10522 8082 ft 312 kts 258°
2026-05-03 21:24 47.57829 9.07368 7582 ft 310 kts 253°
2026-05-03 21:24 47.56948 9.04488 7100 ft 305 kts 234°
2026-05-03 21:24 47.55520 9.02232 6707 ft 296 kts 216°
2026-05-03 21:24 47.53827 9.00683 6314 ft 278 kts 208°
2026-05-03 21:25 47.52188 8.99285 5913 ft 266 kts 209°
2026-05-03 21:25 47.50609 8.97932 5643 ft 259 kts 210°
2026-05-03 21:25 47.49073 8.96617 5388 ft 251 kts 210°
2026-05-03 21:25 47.47581 8.95337 5144 ft 245 kts 210°
2026-05-03 21:26 47.46135 8.94099 5018 ft 237 kts 210°
2026-05-03 21:26 47.44796 8.92710 5000 ft 236 kts 225°
2026-05-03 21:26 47.43850 8.90742 5009 ft 237 kts 245°
2026-05-03 21:26 47.43445 8.88426 5008 ft 237 kts 266°
2026-05-03 21:27 47.43549 8.85989 5019 ft 238 kts 276°
2026-05-03 21:27 47.43734 8.83559 5009 ft 238 kts 276°
2026-05-03 21:27 47.43857 8.81922 4975 ft 239 kts 276°
2026-05-03 21:27 47.44094 8.78708 4600 ft 235 kts 276°
2026-05-03 21:28 47.44265 8.76370 4265 ft 222 kts 276°
2026-05-03 21:28 47.44374 8.74868 4051 ft 214 kts 275°
2026-05-03 21:28 47.44529 8.72738 3773 ft 202 kts 276°
2026-05-03 21:28 47.44673 8.70764 3478 ft 190 kts 276°
2026-05-03 21:29 47.44808 8.68902 3213 ft 173 kts 276°
2026-05-03 21:29 47.44928 8.67234 2961 ft 155 kts 276°
2026-05-03 21:29 47.45038 8.65711 2742 ft 144 kts 275°
2026-05-03 21:29 47.45143 8.64267 2519 ft 139 kts 275°
2026-05-03 21:30 47.45242 8.62870 2296 ft 136 kts 275°
2026-05-03 21:30 47.45341 8.61462 2101 ft 138 kts 276°
2026-05-03 21:30 47.45445 8.60041 1900 ft 140 kts 276°
2026-05-03 21:30 47.45550 8.58597 1697 ft 142 kts 276°
2026-05-03 21:31 47.45654 8.57145 1491 ft 142 kts 276°
2026-05-03 21:31 47.45749 8.55787 1410 ft 116 kts 276°
2026-05-03 21:31 47.45809 8.54921 1388 ft 43 kts 276°
2026-05-03 21:31 47.45889 8.54767 1390 ft 17 kts
2026-05-03 21:32 47.45918 8.54918 1392 ft 12 kts 95°
2026-05-03 21:32 47.45944 8.54986 1395 ft 7 kts 20°
2026-05-03 21:32 47.45986 8.54963 1393 ft 7 kts 337°
2026-05-03 21:32 47.46033 8.54933 1389 ft 8 kts 336°
2026-05-03 21:33 47.46084 8.54899 1389 ft 8 kts 335°
2026-05-03 21:33 47.46131 8.54865 1387 ft 7 kts 334°
2026-05-03 21:33 47.46179 8.54830 1389 ft 8 kts 334°
2026-05-03 21:33 47.46236 8.54790 1388 ft 11 kts 335°
2026-05-03 21:34 47.46302 8.54831 1386 ft 12 kts 77°
2026-05-03 21:34 47.46295 8.54941 1385 ft 9 kts 96°
2026-05-03 21:34 47.46289 8.55026 1389 ft 9 kts 96°
2026-05-03 21:34 47.46282 8.55133 1396 ft 10 kts 95°
2026-05-03 21:35 47.46264 8.55204 1399 ft 6 kts 160°
2026-05-03 21:35 47.46233 8.55197 1401 ft 3 kts 189°
2026-05-03 21:35 47.46205 8.55191 1394 ft 5 kts 187°
2026-05-03 21:35 47.46187 8.55188 1394 ft 1 kts 186°
2026-05-03 21:36 47.46186 8.55188 1394 ft 0 kts 186°